Flag for Germany Weather past 2 weeks in Frankfurt, Hesse, Germany

Now
39 °F

Passing clouds.


Feels Like: 37 °F
Forecast: 34 / 47 °F
Wind: 3 mph from Northwest

Location: Frankfurt-M-Flughafen Airport

Current Time: Mar 5, 2015 at 3:38:27 AM

Latest Report: Mar 5, 2015 at 2:50 AM


Visibility: N/A

Pressure: 30.48 "Hg

Humidity: 75%

Dew point: 32 °F

Location of FrankfurtLocation

Historic Weather in Frankfurt — Graph

°F

Frankfurt temperature yesterday

Maximum temperature yesterday: 46 °F (at 3:20 PM)
Minimum temperature yesterday: 34 °F (at 3:20 AM)
Average temperature yesterday: 40 °F

Past Weeks' High & Low Weather Summary

 TemperatureHumidityPressure
High52 °F (Feb 20, 1:50 PM)100% (Feb 22, 2:50 AM)30.74 "Hg (Feb 22, 2:50 AM)
Low28 °F (Feb 28, 6:50 AM)35% (Mar 2, 2:50 PM)29.45 "Hg (Feb 21, 7:20 AM)
Average40 °F78%29.99 "Hg
* Reported Feb 18 2:20 AM — Mar 5 2:20 AM, Frankfurt, Weather by CustomWeather, © 2015

Note: Actual official high and low records may vary slightly from our data, if they occured in-between our weather recording intervals... More about our weather records

Advertising

Frankfurt weather history for previous 24 hours

 ConditionsComfort  
Time TempWeatherWind HumidityBarometerVisibility
2:20 AM
Thu, Mar 5
41 °FScattered showers. Passing clouds.7 mph70%30.48 "HgN/A
1:50 AM41 °FLight rain. Passing clouds.12 mph70%30.48 "HgN/A
1:20 AM41 °FPassing clouds.13 mph70%30.45 "HgN/A
12:50 AM41 °FPassing clouds.10 mph70%30.45 "HgN/A
12:20 AM41 °FPassing clouds.10 mph76%30.45 "HgN/A
11:50 PM
Wed, Mar 4
41 °FLight rain. Passing clouds.8 mph70%30.42 "HgN/A
11:20 PM39 °FLight rain. Passing clouds.7 mph75%30.42 "HgN/A
10:20 PM39 °FPassing clouds.12 mph75%30.42 "HgN/A
9:50 PM39 °FPassing clouds.10 mph75%30.39 "HgN/A
9:20 PM36 °FPassing clouds.6 mph87%30.39 "HgN/A
8:50 PM36 °FPassing clouds.7 mph87%30.39 "HgN/A
8:20 PM36 °FScattered showers. Passing clouds.3 mph93%30.39 "HgN/A
7:50 PM37 °FThunderstorms. Partly cloudy.18 mph87%30.39 "HgN/A
7:20 PM41 °FSprinkles. Passing clouds.10 mph70%30.36 "HgN/A
6:50 PM41 °FScattered showers. Passing clouds.9 mph70%30.33 "HgN/A
6:20 PM41 °FScattered showers. Passing clouds.10 mph70%30.33 "HgN/A
5:50 PM43 °FScattered showers. Passing clouds.13 mph61%30.33 "HgN/A
5:20 PM46 °FScattered showers. Scattered clouds.8 mph53%30.30 "HgN/A
4:50 PM46 °FScattered showers. Scattered clouds.10 mph50%30.30 "HgN/A
4:20 PM46 °FScattered showers. Scattered clouds.13 mph50%30.30 "HgN/A
3:50 PM46 °FScattered showers. Partly sunny.10 mph50%30.30 "HgN/A
3:20 PM46 °FBroken clouds.13 mph53%30.30 "HgN/A
2:50 PM45 °FBroken clouds.14 mph57%30.30 "HgN/A
2:20 PM45 °FBroken clouds.15 mph57%30.27 "HgN/A
1:50 PM45 °FBroken clouds.15 mph57%30.27 "HgN/A
1:20 PM45 °FBroken clouds.14 mph61%30.30 "HgN/A
12:50 PM45 °FBroken clouds.15 mph61%30.30 "HgN/A
12:20 PM43 °FPartly sunny.12 mph61%30.30 "HgN/A
11:50 AM45 °FBroken clouds.12 mph57%30.30 "HgN/A
11:20 AM43 °FBroken clouds.14 mph66%30.30 "HgN/A
10:50 AM41 °FBroken clouds.15 mph66%30.30 "HgN/A
10:20 AM41 °FBroken clouds.14 mph70%30.27 "HgN/A
9:50 AM41 °FPartly sunny.13 mph76%30.27 "HgN/A
9:20 AM39 °FPartly sunny.9 mph81%30.27 "HgN/A
8:50 AM37 °FPartly sunny.7 mph87%30.27 "HgN/A
8:20 AM34 °FPartly sunny.5 mph93%30.24 "HgN/A
7:50 AM34 °FPartly sunny.5 mph93%30.24 "HgN/A
7:20 AM34 °FScattered clouds.8 mph93%30.24 "HgN/A
6:50 AM34 °FPassing clouds.6 mph93%30.21 "HgN/A
6:20 AM36 °FPassing clouds.5 mph87%30.21 "HgN/A
5:50 AM34 °FPassing clouds.3 mph100%30.21 "HgN/A
5:20 AM34 °FPassing clouds.3 mph100%30.21 "HgN/A
4:50 AM37 °FSprinkles. Passing clouds.9 mph87%30.18 "HgN/A
4:20 AM37 °FPassing clouds.9 mph87%30.18 "HgN/A
3:50 AM36 °FPassing clouds.12 mph93%30.18 "HgN/A
3:20 AM34 °FPassing clouds.3 mph100%30.18 "HgN/A
Weather by CustomWeather, © 2015

See weather overviewHow to use our weather pages